Etusivu
METAR-TAF:

METAR-TAF

Lentoasemat :

Estherville Municipal Airport

Estherville, Iowa, Yhdysvallat

Leveyspiiri: 43-24-04N, Pituuspiiri: 094-44-50W, korkeus merenpinnasta: 401 m

Tämänhetkinen sää

Tämä raportti tehtiin 51 minuuttia sitten, kello 08.52 UTC
Tuuli 13 kn etelästä
Lämpötila -6°C
Kosteus 68%
Ilmanpaine 1011 hPa
Näkyvyys: 16.1 km
Pilvistä 10000 ft:n korkeudessa

METAR: KEST 130852Z AUTO 19013KT 10SM OVC100 M06/M11 A2986 RMK AO2 SLP134 T10611106 56024

Aika: 03:43 (09:43 UTC)


TAF: puuttuu

Säähavainnot ja -ennusteet yli 4000 lentoasemalta (METAR- ja TAF-raportit).

Käytössä olevat sääasemat on merkitty karttaan keltaisilla ja punaisilla pisteillä.

Aseta hiiri pisteen päälle nähdäksesi sääaseman nimen.

Klikkaa sitten nähdäksesi säähavainnot ja -ennusteet.

Kartan vaihtaminen: klikkaa mustalla rastilla varustettuja vihreitä pisteitä, niin voit zoomata sisään; viivalla varustettua vihreää pistettä, niin voit zoomata ulos tai vihreitä nuolia, niin pääset viereisille kartoille.


METAR-TAF: